Location: Unspecified
(36.5600°N, 136.6600°E)
Time: 04:37:30
(UTC+09:00)

BlueWalker 3 - Pass Details

Date: 23 June 2024
Orbit: 480 x 491 km, 53.2° (Epoch: 24 July)

Event Time Altitude Azimuth Distance (km) Brightness Sun altitude
Rises 03:49:37 0° 296° (WNW) 2,534 5.2 -8.5°
Reaches altitude 10° 03:52:19 10° 276° (W) 1,652 4.1 -8.1°
Maximum altitude 03:54:48 17° 234° (SW) 1,272 3.3 -7.7°
Drops below altitude 10° 03:57:17 10° 192° (SSW) 1,649 4.1 -7.3°
Sets 03:59:59 0° 172° (S) 2,526 5.2 -6.9°
